Crawfordsville Regional (CFJ)

 

Airport Diagram
No Airport Diagram Available
Current Weather/Forecast (VFR Conditions)
METAR KCFJ 211355Z AUTO 23008KT 10SM CLR M01/M04 A2985 RMK AO2 T10091036
TAF

Airport Information

All Charts
General
Chart Name View
TAKEOFF MINIMUMS
ALTERNATE MINIMUMS
TAKEOFF MINIMUMS
ALTERNATE MINIMUMS

Approaches
Chart Name Download
RNAV (GPS) RWY 04
RNAV (GPS) RWY 22
NDB RWY 04
RNAV (GPS) RWY 04
RNAV (GPS) RWY 22
NDB RWY 04


Airport Statistics
Departures Arrivals Local
All Collected Stats since June 2016: 7 6 0
2021 Stats: 1 0 0
January Stats: 1 0 0

Inbound Traffic (Arrivals) - 0

No inbound traffic.


Outbound Traffic (Departures) - 0

No outbound traffic.


Local Traffic (Pattern) - 0

No local traffic.